Theta_e
338 338 337 336 338 339 342 342 341 339 336 336 336 335 333 331 330 333 334 343 347 349 347 350 350 347 345 346 341 339 338 339 343 342 342 341 336 334 332 331 331 330 330
338 336 333 333 333 335 338 340 339 338 336 334 334 334 334 334 336 336 335 336 346 348 347 347 347 345 344 344 341 339 337 340 341 340 341 341 340 336 334 332 331 331 331
337 335 334 333 334 335 336 336 336 335 332 331 332 333 333 335 334 333 334 333 336 346 346 345 345 346 346 346 343 336 332 332 336 337 339 341 340 338 335 334 333 333 332
337 334 334 334 336 335 334 334 334 333 333 330 331 331 331 332 332 332 333 333 333 334 337 344 344 345 345 345 343 335 333 332 330 335 340 340 338 337 336 335 335 334 333
338 336 336 335 336 336 336 336 333 331 330 328 329 329 330 329 331 333 332 332 332 333 332 336 339 340 338 332 329 328 330 332 335 337 337 337 336 334 332 331 330 329 329
333 332 332 332 333 331 332 333 332 329 326 326 329 329 329 329 330 330 331 333 332 333 333 332 332 334 336 333 331 333 335 330 335 335 334 332 331 329 328 327 327 326 326
332 330 330 328 332 330 331 333 331 328 328 327 326 326 326 328 328 329 330 330 329 330 331 332 331 332 332 334 332 336 334 334 332 332 331 330 328 325 323 322 321 319 319
332 330 329 328 329 329 328 330 329 328 329 328 326 322 318 318 322 323 325 326 326 328 329 330 328 329 327 328 329 337 334 333 332 331 329 327 325 323 322 321 320 320 320
332 331 332 328 332 329 327 327 329 330 328 326 328 324 314 312 313 316 319 321 325 324 326 325 323 324 323 323 329 332 335 333 332 330 328 327 325 324 323 322 321 321 320
334 333 334 335 331 334 331 329 329 332 331 327 324 327 322 319 313 311 315 317 317 320 320 318 317 319 320 319 327 331 333 334 332 332 329 327 326 325 324 323 322 322 321
333 332 329 330 328 330 334 332 332 332 331 329 324 322 321 319 318 315 312 309 313 314 314 316 315 313 313 314 315 323 332 331 331 330 329 328 328 326 325 324 324 323 322
326 327 327 326 326 327 330 331 331 330 329 328 325 322 319 317 314 313 312 312 311 312 311 311 312 312 312 312 316 321 325 328 327 327 327 327 327 326 326 326 325 325 323
320 323 322 324 324 325 325 326 325 325 325 322 321 321 319 319 319 317 314 311 308 308 308 309 309 310 313 313 318 321 323 325 324 322 323 324 324 326 325 324 324 323 322
318 319 321 322 322 322 323 322 321 320 319 319 320 320 320 319 317 316 310 307 304 305 306 305 308 307 306 309 314 314 313 318 317 317 317 317 318 317 317 319 319 318 319
320 319 318 317 321 320 315 314 314 314 314 314 313 313 314 315 315 311 311 310 306 300 298 300 300 301 303 305 311 304 304 312 312 311 312 315 316 316 315 316 317 317 318
320 320 317 316 315 315 315 314 313 314 313 312 312 310 307 305 304 304 302 300 300 299 298 299 297 298 301 302 304 300 302 307 308 309 310 311 311 314 315 316 317 316 316
319 319 320 320 318 314 313 313 311 313 312 309 309 307 304 305 302 301 298 297 296 298 297 300 303 300 300 298 298 299 301 301 299 304 306 307 309 311 312 313 314 313 313
317 316 318 308 306 306 305 306 310 310 307 305 305 303 302 301 296 295 294 292 293 293 292 290 291 292 293 294 294 294 298 299 296 302 305 305 306 307 310 311 311 311 311
307 307 306 305 304 305 304 305 308 307 304 303 301 298 296 295 292 292 291 290 290 292 289 288 287 289 290 291 291 292 292 293 297 303 302 305 306 307 308 310 309 309 308
302 303 302 302 303 304 305 305 307 304 303 301 300 298 297 295 293 292 291 289 289 288 287 286 285 286 287 290 289 289 289 291 292 296 302 303 305 307 308 309 309 310 308
303 302 301 301 302 304 305 306 306 304 302 300 300 299 297 299 300 298 292 288 287 286 285 285 284 285 286 286 287 294 288 289 290 296 299 300 301 302 304 306 308 309 308
299 299 298 299 299 301 303 306 304 301 300 298 294 293 294 295 293 298 299 300 292 287 285 290 290 289 290 291 288 292 292 291 290 299 297 296 300 298 305 306 307 305 305
297 296 296 297 296 297 300 301 300 298 296 293 291 290 291 292 291 289 293 295 296 297 295 289 290 291 292 293 294 294 293 292 292 293 295 294 301 301 303 303 303 302 301
296 295 295 295 294 295 297 298 297 294 292 291 290 288 287 287 290 289 288 287 288 289 292 295 294 295 296 297 296 296 296 296 296 297 295 293 300 300 300 300 301 300 300
295 295 295 293 291 292 296 296 294 292 291 291 291 288 288 287 294 294 287 286 287 292 296 298 299 299 299 298 298 297 296 295 294 296 300 298 299 298 299 297 298 300 299
295 294 292 292 295 291 295 295 293 290 288 290 291 291 294 292 295 294 287 286 289 292 295 296 296 298 298 295 300 299 298 295 294 295 300 298 298 297 296 298 297 297 298
Wind_Speed
7 7 9 6 7 5 7 7 7 7 7 8 8 9 9 9 8 5 3 13 14 12 12 15 16 16 16 16 12 14 15 15 15 17 20 19 19 18 17 17 16 15 14
8 8 6 6 6 6 6 6 7 7 6 5 7 8 10 8 7 6 4 6 16 15 16 16 16 18 19 21 21 19 12 14 16 15 15 22 20 20 19 18 17 17 17
9 9 5 4 5 4 5 5 5 4 4 4 9 7 7 7 4 4 4 4 4 13 17 20 21 21 23 23 22 16 10 10 10 13 15 18 22 21 20 19 19 19 19
11 5 5 5 4 4 5 5 5 5 5 5 6 5 3 4 4 5 3 4 4 5 11 21 22 24 23 25 20 14 17 17 15 15 15 15 20 21 18 17 16 15 13
12 9 7 8 10 7 5 2 3 4 4 2 3 2 2 2 2 2 7 8 9 9 6 12 20 19 4 9 5 1 8 12 11 9 11 12 13 12 10 9 7 7 6
12 9 10 7 5 8 6 3 4 3 2 3 2 3 3 4 4 6 9 9 9 9 9 10 7 5 15 16 19 21 20 16 14 13 14 14 13 12 11 9 8 8 8
11 14 11 9 6 9 9 3 2 4 4 4 1 2 3 6 7 9 7 7 8 11 10 11 6 5 9 19 20 22 19 18 16 16 16 16 15 14 12 11 10 8 5
10 9 14 5 18 10 7 6 5 3 3 6 3 1 2 3 4 6 6 6 7 6 6 6 6 7 8 6 13 19 20 19 19 18 17 15 14 12 13 12 9 8 7
9 11 13 13 13 5 3 4 6 8 5 4 7 4 2 3 2 1 3 2 4 4 4 5 8 9 9 7 10 15 19 20 20 19 19 18 17 16 15 13 12 11 10
6 7 11 8 6 6 7 8 8 7 4 4 2 4 0 3 3 2 2 2 2 4 4 4 4 6 7 5 11 15 18 20 22 22 21 19 19 19 19 17 16 15 13
3 5 6 6 7 5 5 6 4 4 3 3 3 3 2 2 1 1 1 4 3 3 4 3 1 1 2 3 3 7 17 20 21 20 21 22 24 22 22 22 20 17 14
4 4 7 5 6 5 4 3 3 3 3 3 3 3 3 3 2 2 2 3 3 2 4 5 6 4 2 2 6 13 15 17 18 20 19 19 21 20 23 23 18 18 17
3 4 5 6 6 5 5 3 2 1 2 2 3 3 2 2 3 2 2 0 2 1 3 5 6 6 5 4 6 7 5 3 6 7 11 16 17 17 18 18 15 17 15
4 3 4 4 5 5 3 1 1 1 3 3 5 3 2 2 2 2 3 3 1 2 2 3 5 5 4 4 10 14 8 14 13 11 10 9 7 5 1 5 7 7 12
3 4 4 2 4 1 1 1 2 3 4 4 4 4 3 2 2 2 1 1 3 3 3 2 1 4 4 5 8 6 6 11 10 9 9 8 9 9 6 10 12 16 19
5 4 3 3 2 3 2 2 3 3 5 3 3 5 5 4 5 4 4 4 2 3 3 0 2 1 2 3 6 5 5 8 9 10 10 10 10 12 15 17 19 19 19
7 6 4 1 1 5 5 4 4 3 5 6 7 9 9 6 4 4 4 4 4 3 2 2 2 2 3 3 4 4 4 4 4 11 12 13 14 14 15 16 15 16 20
4 4 4 12 11 9 9 9 7 6 8 9 9 9 9 7 7 6 4 5 5 4 2 1 2 3 1 2 2 3 3 3 4 9 13 15 16 16 13 13 12 12 13
9 10 11 11 10 7 10 11 11 10 10 10 10 9 7 7 6 4 4 4 4 3 3 2 1 1 2 1 3 3 2 3 3 10 10 12 13 13 12 9 9 10 10
10 11 11 10 9 8 8 10 11 9 8 9 9 10 8 8 6 5 4 4 3 3 3 2 1 2 1 2 1 2 4 2 4 3 6 9 10 8 8 6 9 10 10
12 12 11 10 9 7 4 7 9 7 6 7 8 10 8 11 12 8 2 2 3 3 3 3 2 2 2 3 2 2 3 4 4 2 4 4 3 3 3 7 9 10 9
13 13 13 11 10 7 10 8 9 7 8 6 8 8 7 10 10 10 9 8 4 3 3 1 3 3 3 2 2 2 3 2 3 1 3 4 4 3 3 4 11 10 8
12 13 12 10 10 9 17 14 16 8 8 8 7 6 6 7 7 5 8 9 8 8 3 2 2 2 2 2 2 4 2 2 2 3 3 3 3 4 5 5 12 11 10
10 9 9 10 10 11 18 15 16 9 8 6 6 6 6 6 5 5 5 6 5 3 3 1 3 5 5 4 4 3 3 4 3 2 2 2 3 2 3 4 11 10 8
9 8 8 9 9 10 17 15 10 6 5 6 4 1 5 5 7 7 6 5 5 3 4 5 4 4 3 4 3 2 3 3 2 2 2 2 2 1 1 2 3 11 9
8 7 8 9 16 11 19 16 9 4 4 2 4 5 8 6 7 7 5 4 5 5 6 7 6 5 4 3 4 4 1 2 3 3 3 4 2 2 1 1 3 5 5
Wind_Direction
217 218 229 230 232 235 235 225 223 223 220 222 226 228 234 230 221 220 205 232 230 230 230 222 207 192 206 221 216 218 217 219 211 235 218 208 210 210 211 212 214 217 217
223 228 235 234 239 231 232 229 225 226 228 216 228 226 237 237 220 196 194 226 228 230 223 223 224 226 225 225 222 219 224 223 210 218 232 216 209 211 213 216 220 224 228
227 238 238 235 232 223 232 258 269 246 230 220 231 222 218 221 190 201 191 207 220 221 229 234 235 242 246 241 229 216 233 267 239 220 222 226 215 214 213 218 223 228 232
220 215 225 241 221 227 212 214 217 243 242 230 249 232 196 166 211 222 233 245 250 260 253 246 252 256 259 259 244 198 210 214 232 235 220 229 216 218 220 228 237 246 251
358 348 6 356 338 327 305 291 274 235 243 228 239 161 161 191 256 241 244 241 241 235 236 255 261 267 261 126 111 244 231 235 226 193 183 187 193 196 197 192 193 212 227
3 347 319 309 326 299 277 244 213 231 197 182 217 199 207 206 215 231 242 242 249 252 245 247 248 192 182 176 183 196 212 206 187 169 171 174 176 182 191 199 210 226 245
37 349 278 290 268 268 260 264 238 205 204 173 202 228 227 221 227 237 249 250 246 246 245 240 205 193 202 199 199 213 199 191 183 181 183 188 193 195 199 205 210 211 247
247 215 250 266 247 226 228 232 226 228 198 178 193 95 295 311 248 237 243 237 238 232 230 218 201 192 208 209 211 209 198 196 195 192 193 198 206 204 206 207 208 219 241
233 247 228 225 263 229 269 236 215 218 222 189 191 163 183 247 19 309 254 229 234 222 223 210 203 203 202 203 217 203 203 204 204 204 205 203 205 212 215 215 220 229 245
273 277 268 277 255 252 260 262 228 214 188 199 154 213 196 137 181 287 306 277 258 224 219 213 224 207 201 197 206 208 210 210 212 212 215 215 215 217 219 221 225 230 238
260 300 301 314 310 321 312 257 235 179 169 167 156 141 142 129 166 150 271 320 336 19 356 325 294 196 178 197 206 239 225 222 213 220 225 228 229 221 225 226 228 233 238
286 303 308 307 298 297 297 291 278 234 194 188 157 152 145 149 153 160 206 241 267 21 31 26 38 30 1 228 227 231 239 242 226 224 230 232 238 240 230 236 235 234 241
291 303 320 318 312 308 321 341 344 122 148 133 139 126 123 129 131 159 134 199 261 353 69 45 23 24 26 25 49 78 52 274 292 290 265 254 256 247 246 252 242 239 257
264 270 291 291 295 305 320 21 98 113 122 114 119 127 114 139 126 96 136 148 224 288 53 93 24 20 15 30 49 49 35 48 46 40 31 26 25 16 327 236 236 254 276
231 214 223 250 279 316 334 149 166 134 108 98 106 110 106 92 92 122 177 193 171 189 235 344 105 0 5 11 23 19 17 8 8 0 354 344 323 306 298 282 266 264 261
287 271 204 167 310 285 228 204 194 149 117 109 126 97 73 64 69 67 75 67 59 157 162 164 56 32 2 3 354 15 352 1 348 341 325 308 286 271 268 265 264 259 260
255 260 291 263 82 346 335 318 275 168 110 99 92 92 83 78 71 65 55 64 56 45 103 118 120 40 28 1 355 347 348 343 337 325 312 301 292 283 274 271 267 272 271
310 279 59 70 37 28 20 19 9 79 90 83 71 76 78 77 67 56 62 59 65 38 91 159 340 352 339 348 332 328 334 332 324 313 303 301 293 285 285 275 265 269 269
49 63 65 66 78 37 54 16 46 35 67 83 89 90 86 83 67 57 55 68 59 53 50 94 319 325 296 359 340 332 316 296 289 306 305 306 290 276 273 279 259 256 260
63 65 65 73 64 58 46 67 67 55 49 63 83 84 79 78 81 68 48 53 74 81 52 53 12 313 309 308 356 331 332 297 299 304 325 323 318 292 267 286 264 254 244
52 48 50 42 32 23 10 93 111 97 89 82 76 70 59 54 51 48 86 68 98 73 59 44 16 344 322 343 350 322 277 295 301 279 324 304 308 330 31 19 37 46 31
39 43 33 32 31 22 23 76 86 84 84 68 62 58 45 38 33 46 47 61 124 104 72 356 5 318 296 260 266 296 303 339 333 350 333 321 351 2 43 44 46 42 30
40 38 32 20 31 27 43 66 75 72 76 64 55 44 41 33 23 23 29 46 52 42 94 159 258 262 296 253 287 288 267 254 258 286 330 312 341 49 46 30 31 23 17
54 47 33 24 28 33 41 52 68 67 68 63 55 40 43 22 9 36 33 33 3 333 302 265 238 256 241 264 259 273 282 289 261 272 195 287 353 45 43 25 20 10 5
60 49 40 26 27 32 41 47 54 52 54 51 55 130 55 24 24 40 45 23 355 329 312 315 332 314 316 328 265 269 347 345 348 359 58 296 7 359 69 24 355 9 358
53 45 36 21 36 28 29 33 38 34 45 29 32 20 33 31 15 32 49 20 353 328 333 345 353 356 5 359 18 40 348 343 349 338 30 344 4 14 297 108 25 2 353